Time,TemperatureF,DewpointF,PressureIn,WindDirection,WindDirectionDegrees,WindSpeedMPH,WindSpeedGustMPH,Humidity,HourlyPrecipIn,Conditions,Clouds,dailyrainin,SoftwareType,DateUTC
2013-08-31 00:00:00,85.7,63.8,29.82,ESE,108,0.0,8.0,48,0.00,,,0.00,Wunderground v.1.15,2013-08-31 05:00:00,
2013-08-31 00:05:00,85.6,63.7,29.81,ESE,108,0.0,8.0,48,0.00,,,0.00,Wunderground v.1.15,2013-08-31 05:05:00,
2013-08-31 00:10:00,85.5,63.6,29.81,ESE,108,0.0,0.0,48,0.00,,,0.00,Wunderground v.1.15,2013-08-31 05:10:00,
2013-08-31 00:20:00,85.3,64.0,29.81,ESE,108,0.0,6.0,49,0.00,,,0.00,Wunderground v.1.15,2013-08-31 05:20:00,
2013-08-31 00:25:00,85.2,63.9,29.81,ESE,108,0.0,6.0,49,0.00,,,0.00,Wunderground v.1.15,2013-08-31 05:25:00,
2013-08-31 00:30:00,85.1,63.8,29.81,ESE,108,0.0,0.0,49,0.00,,,0.00,Wunderground v.1.15,2013-08-31 05:30:00,
2013-08-31 00:35:00,85.0,63.7,29.81,ESE,108,0.0,0.0,49,0.00,,,0.00,Wunderground v.1.15,2013-08-31 05:35:00,
2013-08-31 00:45:00,84.8,63.5,29.81,ESE,108,0.0,0.0,49,0.00,,,0.00,Wunderground v.1.15,2013-08-31 05:45:00,
2013-08-31 00:50:00,84.6,63.9,29.81,ESE,108,0.0,0.0,50,0.00,,,0.00,Wunderground v.1.15,2013-08-31 05:50:00,
2013-08-31 00:55:00,84.4,63.7,29.81,ESE,108,0.0,0.0,50,0.00,,,0.00,Wunderground v.1.15,2013-08-31 05:55:00,
2013-08-31 01:00:00,84.2,64.1,29.81,ESE,108,0.0,0.0,51,0.00,,,0.00,Wunderground v.1.15,2013-08-31 06:00:00,
2013-08-31 01:10:00,83.7,63.7,29.81,ESE,108,0.0,0.0,51,0.00,,,0.00,Wunderground v.1.15,2013-08-31 06:10:00,
2013-08-31 01:15:00,83.5,63.5,29.81,ESE,108,0.0,0.0,51,0.00,,,0.00,Wunderground v.1.15,2013-08-31 06:15:00,
2013-08-31 01:20:00,83.3,63.8,29.81,ESE,108,0.0,0.0,52,0.00,,,0.00,Wunderground v.1.15,2013-08-31 06:20:00,
2013-08-31 01:30:00,83.1,63.7,29.81,ESE,108,0.0,0.0,52,0.00,,,0.00,Wunderground v.1.15,2013-08-31 06:30:00,
2013-08-31 01:35:00,82.9,63.5,29.81,ESE,108,0.0,0.0,52,0.00,,,0.00,Wunderground v.1.15,2013-08-31 06:35:00,
2013-08-31 01:40:00,82.8,63.4,29.81,ESE,111,0.0,0.0,52,0.00,,,0.00,Wunderground v.1.15,2013-08-31 06:40:00,
2013-08-31 01:45:00,82.8,62.8,29.81,ESE,111,0.0,0.0,51,0.00,,,0.00,Wunderground v.1.15,2013-08-31 06:45:00,
2013-08-31 01:55:00,83.3,62.7,29.81,SE,125,1.0,7.0,50,0.00,,,0.00,Wunderground v.1.15,2013-08-31 06:55:00,
2013-08-31 02:00:00,83.6,63.0,29.81,SE,142,1.0,1.0,50,0.00,,,0.00,Wunderground v.1.15,2013-08-31 07:00:00,
2013-08-31 02:10:00,83.8,63.2,29.81,SSE,153,1.0,1.0,50,0.00,,,0.00,Wunderground v.1.15,2013-08-31 07:10:00,
2013-08-31 02:15:00,83.9,63.3,29.81,SSE,153,1.0,1.0,50,0.00,,,0.00,Wunderground v.1.15,2013-08-31 07:15:00,
2013-08-31 02:20:00,83.8,62.6,29.81,SSE,157,1.0,1.0,49,0.00,,,0.00,Wunderground v.1.15,2013-08-31 07:20:00,
2013-08-31 02:25:00,83.8,62.6,29.81,SSE,159,1.0,1.0,49,0.00,,,0.00,Wunderground v.1.15,2013-08-31 07:25:00,
2013-08-31 02:30:00,83.7,63.1,29.81,SSE,159,1.0,1.0,50,0.00,,,0.00,Wunderground v.1.15,2013-08-31 07:30:00,
2013-08-31 02:40:00,83.9,62.1,29.82,South,182,2.0,2.0,48,0.00,,,0.00,Wunderground v.1.15,2013-08-31 07:40:00,
2013-08-31 02:45:00,84.2,62.4,29.82,South,175,3.0,3.0,48,0.00,,,0.00,Wunderground v.1.15,2013-08-31 07:45:00,
2013-08-31 02:50:00,84.4,62.6,29.82,South,174,2.0,2.0,48,0.00,,,0.00,Wunderground v.1.15,2013-08-31 07:50:00,
2013-08-31 02:55:00,84.3,62.5,29.82,South,174,1.0,2.0,48,0.00,,,0.00,Wunderground v.1.15,2013-08-31 07:55:00,
2013-08-31 03:00:00,84.1,62.9,29.82,South,173,2.0,2.0,49,0.00,,,0.00,Wunderground v.1.15,2013-08-31 08:00:00,
2013-08-31 03:10:00,83.8,62.6,29.82,South,175,2.0,2.0,49,0.00,,,0.00,Wunderground v.1.15,2013-08-31 08:10:00,
2013-08-31 03:15:00,83.7,63.1,29.82,South,175,1.0,9.0,50,0.00,,,0.00,Wunderground v.1.15,2013-08-31 08:15:00,
2013-08-31 03:25:00,83.3,62.7,29.82,South,175,1.0,1.0,50,0.00,,,0.00,Wunderground v.1.15,2013-08-31 08:25:00,
2013-08-31 03:30:00,83.2,62.6,29.82,South,175,1.0,1.0,50,0.00,,,0.00,Wunderground v.1.15,2013-08-31 08:30:00,
2013-08-31 03:35:00,82.9,62.9,29.83,South,175,0.0,1.0,51,0.00,,,0.00,Wunderground v.1.15,2013-08-31 08:35:00,
2013-08-31 03:40:00,82.7,63.3,29.82,South,175,0.0,0.0,52,0.00,,,0.00,Wunderground v.1.15,2013-08-31 08:40:00,
2013-08-31 03:45:00,82.4,63.0,29.82,South,173,0.0,2.0,52,0.00,,,0.00,Wunderground v.1.15,2013-08-31 08:45:00,
2013-08-31 03:55:00,81.9,63.1,29.82,South,173,2.0,2.0,53,0.00,,,0.00,Wunderground v.1.15,2013-08-31 08:55:00,
2013-08-31 04:00:00,81.8,63.5,29.83,South,173,3.0,7.0,54,0.00,,,0.00,Wunderground v.1.15,2013-08-31 09:00:00,
2013-08-31 04:10:00,81.6,63.3,29.83,South,182,1.0,4.0,54,0.00,,,0.00,Wunderground v.1.15,2013-08-31 09:10:00,
2013-08-31 04:15:00,81.5,63.8,29.83,South,180,1.0,4.0,55,0.00,,,0.00,Wunderground v.1.15,2013-08-31 09:15:00,
2013-08-31 04:20:00,81.4,63.7,29.83,South,180,2.0,6.0,55,0.00,,,0.00,Wunderground v.1.15,2013-08-31 09:20:00,
2013-08-31 04:25:00,81.4,63.7,29.83,South,180,1.0,6.0,55,0.00,,,0.00,Wunderground v.1.15,2013-08-31 09:25:00,
2013-08-31 04:35:00,81.2,64.0,29.82,South,181,2.0,6.0,56,0.00,,,0.00,Wunderground v.1.15,2013-08-31 09:35:00,
2013-08-31 04:40:00,81.2,64.0,29.83,South,180,2.0,2.0,56,0.00,,,0.00,Wunderground v.1.15,2013-08-31 09:40:00,
2013-08-31 04:45:00,81.1,64.4,29.83,South,172,2.0,2.0,57,0.00,,,0.00,Wunderground v.1.15,2013-08-31 09:45:00,
2013-08-31 04:50:00,80.9,64.2,29.83,South,173,2.0,2.0,57,0.00,,,0.00,Wunderground v.1.15,2013-08-31 09:50:00,
2013-08-31 04:55:00,80.8,64.6,29.83,South,176,1.0,2.0,58,0.00,,,0.00,Wunderground v.1.15,2013-08-31 09:55:00,
2013-08-31 05:00:00,80.6,64.5,29.83,South,182,2.0,4.0,58,0.00,,,0.00,Wunderground v.1.15,2013-08-31 10:00:00,
2013-08-31 05:10:00,80.5,64.9,29.83,South,185,1.0,1.0,59,0.00,,,0.00,Wunderground v.1.15,2013-08-31 10:10:00,
2013-08-31 05:15:00,80.4,64.8,29.82,South,185,2.0,2.0,59,0.00,,,0.00,Wunderground v.1.15,2013-08-31 10:15:00,
2013-08-31 05:25:00,80.3,65.1,29.82,South,186,1.0,6.0,60,0.00,,,0.00,Wunderground v.1.15,2013-08-31 10:25:00,
2013-08-31 05:30:00,80.1,65.0,29.82,South,183,1.0,1.0,60,0.00,,,0.00,Wunderground v.1.15,2013-08-31 10:30:00,
2013-08-31 05:35:00,80.0,65.3,29.82,South,179,1.0,7.0,61,0.00,,,0.00,Wunderground v.1.15,2013-08-31 10:35:00,
2013-08-31 05:40:00,80.0,65.3,29.82,South,188,1.0,1.0,61,0.00,,,0.00,Wunderground v.1.15,2013-08-31 10:40:00,
2013-08-31 05:50:00,79.8,65.6,29.82,South,186,1.0,7.0,62,0.00,,,0.00,Wunderground v.1.15,2013-08-31 10:50:00,
2013-08-31 05:55:00,79.7,65.5,29.82,South,189,2.0,7.0,62,0.00,,,0.00,Wunderground v.1.15,2013-08-31 10:55:00,
2013-08-31 06:00:00,79.6,65.9,29.82,South,191,1.0,1.0,63,0.00,,,0.00,Wunderground v.1.15,2013-08-31 11:00:00,
2013-08-31 06:10:00,79.4,65.7,29.83,South,185,1.0,1.0,63,0.00,,,0.00,Wunderground v.1.15,2013-08-31 11:10:00,
2013-08-31 06:15:00,79.2,66.0,29.83,South,182,1.0,1.0,64,0.00,,,0.00,Wunderground v.1.15,2013-08-31 11:15:00,
2013-08-31 06:20:00,79.0,66.2,29.82,South,180,0.0,0.0,65,0.00,,,0.00,Wunderground v.1.15,2013-08-31 11:20:00,
2013-08-31 06:25:00,78.8,66.0,29.82,South,180,0.0,0.0,65,0.00,,,0.00,Wunderground v.1.15,2013-08-31 11:25:00,
2013-08-31 06:35:00,78.5,66.2,29.83,South,180,1.0,1.0,66,0.00,,,0.00,Wunderground v.1.15,2013-08-31 11:35:00,
2013-08-31 06:40:00,78.5,66.6,29.82,South,178,1.0,1.0,67,0.00,,,0.00,Wunderground v.1.15,2013-08-31 11:40:00,
2013-08-31 06:45:00,78.4,66.5,29.83,South,180,0.0,1.0,67,0.00,,,0.00,Wunderground v.1.15,2013-08-31 11:45:00,
2013-08-31 06:50:00,78.5,66.6,29.83,South,180,0.0,1.0,67,0.00,,,0.00,Wunderground v.1.15,2013-08-31 11:50:00,
2013-08-31 07:00:00,78.5,67.1,29.83,South,180,1.0,1.0,68,0.00,,,0.00,Wunderground v.1.15,2013-08-31 12:00:00,
2013-08-31 07:10:00,78.5,67.1,29.83,South,183,1.0,7.0,68,0.00,,,0.00,Wunderground v.1.15,2013-08-31 12:10:00,
2013-08-31 07:20:00,78.6,67.6,29.84,South,182,1.0,1.0,69,0.00,,,0.00,Wunderground v.1.15,2013-08-31 12:20:00,
2013-08-31 07:25:00,78.7,67.7,29.84,South,183,1.0,1.0,69,0.00,,,0.00,Wunderground v.1.15,2013-08-31 12:25:00,
2013-08-31 07:30:00,78.7,67.7,29.84,South,183,1.0,1.0,69,0.00,,,0.00,Wunderground v.1.15,2013-08-31 12:30:00,
2013-08-31 07:35:00,78.7,67.7,29.84,South,183,0.0,1.0,69,0.00,,,0.00,Wunderground v.1.15,2013-08-31 12:35:00,
2013-08-31 07:40:00,78.6,67.6,29.84,South,183,0.0,0.0,69,0.00,,,0.00,Wunderground v.1.15,2013-08-31 12:40:00,
2013-08-31 07:50:00,78.5,67.9,29.84,South,183,0.0,0.0,70,0.00,,,0.00,Wunderground v.1.15,2013-08-31 12:50:00,
2013-08-31 07:55:00,78.5,67.9,29.84,South,183,0.0,0.0,70,0.00,,,0.00,Wunderground v.1.15,2013-08-31 12:55:00,
2013-08-31 08:00:00,78.6,68.0,29.85,South,184,1.0,1.0,70,0.00,,,0.00,Wunderground v.1.15,2013-08-31 13:00:00,
2013-08-31 08:10:00,78.9,68.3,29.85,South,185,0.0,0.0,70,0.00,,,0.00,Wunderground v.1.15,2013-08-31 13:10:00,
2013-08-31 08:15:00,79.2,68.1,29.85,South,186,0.0,0.0,69,0.00,,,0.00,Wunderground v.1.15,2013-08-31 13:15:00,
2013-08-31 08:20:00,79.4,68.3,29.85,South,190,1.0,1.0,69,0.00,,,0.00,Wunderground v.1.15,2013-08-31 13:20:00,
2013-08-31 08:30:00,80.1,68.6,29.85,South,184,1.0,1.0,68,0.00,,,0.00,Wunderground v.1.15,2013-08-31 13:30:00,
2013-08-31 08:35:00,80.6,68.6,29.85,South,187,1.0,1.0,67,0.00,,,0.00,Wunderground v.1.15,2013-08-31 13:35:00,
2013-08-31 08:40:00,81.1,68.7,29.86,SSW,199,0.0,0.0,66,0.00,,,0.00,Wunderground v.1.15,2013-08-31 13:40:00,
2013-08-31 08:45:00,81.7,68.8,29.85,SSW,196,1.0,2.0,65,0.00,,,0.00,Wunderground v.1.15,2013-08-31 13:45:00,
2013-08-31 08:50:00,82.1,68.7,29.85,SSW,200,2.0,3.0,64,0.00,,,0.00,Wunderground v.1.15,2013-08-31 13:50:00,
2013-08-31 09:00:00,82.8,68.9,29.85,SSW,200,1.0,5.0,63,0.00,,,0.00,Wunderground v.1.15,2013-08-31 14:00:00,
2013-08-31 09:10:00,83.9,69.5,29.85,SSW,207,1.0,1.0,62,0.00,,,0.00,Wunderground v.1.15,2013-08-31 14:10:00,
2013-08-31 09:15:00,84.7,69.3,29.85,SSW,207,0.0,1.0,60,0.00,,,0.00,Wunderground v.1.15,2013-08-31 14:15:00,
2013-08-31 09:20:00,85.5,69.0,29.85,SSW,207,0.0,0.0,58,0.00,,,0.00,Wunderground v.1.15,2013-08-31 14:20:00,
2013-08-31 09:25:00,86.0,69.5,29.85,SSW,206,0.0,0.0,58,0.00,,,0.00,Wunderground v.1.15,2013-08-31 14:25:00,
2013-08-31 09:30:00,86.6,69.6,29.85,SSW,207,0.0,0.0,57,0.00,,,0.00,Wunderground v.1.15,2013-08-31 14:30:00,
2013-08-31 09:35:00,87.2,70.1,29.85,SSW,207,0.0,2.0,57,0.00,,,0.00,Wunderground v.1.15,2013-08-31 14:35:00,
2013-08-31 09:45:00,88.4,69.6,29.85,SSW,207,1.0,3.0,54,0.00,,,0.00,Wunderground v.1.15,2013-08-31 14:45:00,
2013-08-31 09:50:00,88.8,70.0,29.85,SSW,207,0.0,0.0,54,0.00,,,0.00,Wunderground v.1.15,2013-08-31 14:50:00,
2013-08-31 09:55:00,89.4,69.5,29.85,SSW,207,0.0,0.0,52,0.00,,,0.00,Wunderground v.1.15,2013-08-31 14:55:00,
2013-08-31 10:00:00,89.6,69.1,29.85,SSW,207,0.0,0.0,51,0.00,,,0.00,Wunderground v.1.15,2013-08-31 15:00:00,
2013-08-31 10:10:00,90.7,70.1,29.85,SSW,207,0.0,0.0,51,0.00,,,0.00,Wunderground v.1.15,2013-08-31 15:10:00,
2013-08-31 10:15:00,91.3,69.5,29.85,SSW,207,0.0,0.0,49,0.00,,,0.00,Wunderground v.1.15,2013-08-31 15:15:00,
2013-08-31 10:25:00,92.0,68.9,29.84,SSW,207,0.0,0.0,47,0.00,,,0.00,Wunderground v.1.15,2013-08-31 15:25:00,
2013-08-31 10:30:00,92.6,70.0,29.84,SSW,207,0.0,0.0,48,0.00,,,0.00,Wunderground v.1.15,2013-08-31 15:30:00,
2013-08-31 10:35:00,93.0,69.8,29.85,SSW,207,0.0,0.0,47,0.00,,,0.00,Wunderground v.1.15,2013-08-31 15:35:00,
2013-08-31 10:40:00,93.6,70.3,29.85,SSW,207,0.0,0.0,47,0.00,,,0.00,Wunderground v.1.15,2013-08-31 15:40:00,
2013-08-31 10:45:00,94.4,72.3,29.84,SSW,207,0.0,0.0,49,0.00,,,0.00,Wunderground v.1.15,2013-08-31 15:45:00,
2013-08-31 10:55:00,95.3,69.3,29.84,SSW,207,0.0,0.0,43,0.00,,,0.00,Wunderground v.1.15,2013-08-31 15:55:00,
2013-08-31 11:00:00,95.8,72.3,29.84,SSW,207,0.0,0.0,47,0.00,,,0.00,Wunderground v.1.15,2013-08-31 16:00:00,
2013-08-31 11:10:00,96.3,70.2,29.84,SSW,207,0.0,0.0,43,0.00,,,0.00,Wunderground v.1.15,2013-08-31 16:10:00,
2013-08-31 11:15:00,96.7,69.1,29.84,SSW,207,0.0,0.0,41,0.00,,,0.00,Wunderground v.1.15,2013-08-31 16:15:00,
2013-08-31 11:20:00,97.4,70.5,29.84,SSW,207,0.0,0.0,42,0.00,,,0.00,Wunderground v.1.15,2013-08-31 16:20:00,
2013-08-31 11:30:00,98.5,70.7,29.83,South,184,0.0,0.0,41,0.00,,,0.00,Wunderground v.1.15,2013-08-31 16:30:00,
2013-08-31 11:35:00,98.3,67.6,29.83,South,184,0.0,0.0,37,0.00,,,0.00,Wunderground v.1.15,2013-08-31 16:35:00,
2013-08-31 11:40:00,98.2,69.7,29.83,South,184,0.0,3.0,40,0.00,,,0.00,Wunderground v.1.15,2013-08-31 16:40:00,
2013-08-31 11:45:00,98.9,70.4,29.83,SSW,207,1.0,5.0,40,0.00,,,0.00,Wunderground v.1.15,2013-08-31 16:45:00,
2013-08-31 11:55:00,99.6,68.7,29.83,SSE,164,1.0,1.0,37,0.00,,,0.00,Wunderground v.1.15,2013-08-31 16:55:00,
2013-08-31 12:00:00,99.9,68.2,29.83,SSE,157,1.0,1.0,36,0.00,,,0.00,Wunderground v.1.15,2013-08-31 17:00:00,
2013-08-31 12:10:00,100.1,68.3,29.83,SE,129,1.0,1.0,36,0.00,,,0.00,Wunderground v.1.15,2013-08-31 17:10:00,
2013-08-31 12:15:00,100.2,67.6,29.82,SE,144,2.0,5.0,35,0.00,,,0.00,Wunderground v.1.15,2013-08-31 17:15:00,
2013-08-31 12:20:00,99.9,66.5,29.82,South,186,3.0,3.0,34,0.00,,,0.00,Wunderground v.1.15,2013-08-31 17:20:00,
2013-08-31 12:25:00,99.8,67.3,29.82,South,188,2.0,5.0,35,0.00,,,0.00,Wunderground v.1.15,2013-08-31 17:25:00,
2013-08-31 12:30:00,100.7,66.3,29.82,ESE,119,2.0,5.0,33,0.00,,,0.00,Wunderground v.1.15,2013-08-31 17:30:00,
2013-08-31 12:40:00,101.4,67.0,29.82,East,98,2.0,2.0,33,0.00,,,0.00,Wunderground v.1.15,2013-08-31 17:40:00,
2013-08-31 12:45:00,101.4,66.1,29.81,East,93,1.0,2.0,32,0.00,,,0.00,Wunderground v.1.15,2013-08-31 17:45:00,
2013-08-31 12:50:00,101.3,66.9,29.81,ESE,109,2.0,8.0,33,0.00,,,0.00,Wunderground v.1.15,2013-08-31 17:50:00,
2013-08-31 12:55:00,101.3,66.9,29.81,ESE,116,2.0,8.0,33,0.00,,,0.00,Wunderground v.1.15,2013-08-31 17:55:00,
2013-08-31 13:00:00,101.7,67.2,29.80,SE,136,3.0,4.0,33,0.00,,,0.00,Wunderground v.1.15,2013-08-31 18:00:00,
2013-08-31 13:10:00,101.5,66.1,29.81,SE,134,1.0,1.0,32,0.00,,,0.00,Wunderground v.1.15,2013-08-31 18:10:00,
2013-08-31 13:15:00,100.8,68.1,29.81,SE,134,0.0,1.0,35,0.00,,,0.00,Wunderground v.1.15,2013-08-31 18:15:00,
2013-08-31 13:25:00,101.1,65.8,29.80,South,173,1.0,1.0,32,0.00,,,0.00,Wunderground v.1.15,2013-08-31 18:25:00,
2013-08-31 13:30:00,101.8,67.3,29.80,SSE,168,2.0,2.0,33,0.00,,,0.00,Wunderground v.1.15,2013-08-31 18:30:00,
2013-08-31 13:35:00,101.6,65.3,29.80,South,189,1.0,2.0,31,0.00,,,0.00,Wunderground v.1.15,2013-08-31 18:35:00,
2013-08-31 13:40:00,102.3,67.7,29.80,SE,138,1.0,5.0,33,0.00,,,0.00,Wunderground v.1.15,2013-08-31 18:40:00,
2013-08-31 13:45:00,102.3,66.8,29.80,SSE,154,1.0,9.0,32,0.00,,,0.00,Wunderground v.1.15,2013-08-31 18:45:00,
2013-08-31 13:55:00,102.3,65.0,29.79,SSE,153,1.0,2.0,30,0.00,,,0.00,Wunderground v.1.15,2013-08-31 18:55:00,
2013-08-31 14:00:00,102.5,66.1,29.79,SW,217,1.0,1.0,31,0.00,,,0.00,Wunderground v.1.15,2013-08-31 19:00:00,
2013-08-31 14:10:00,102.5,66.1,29.79,East,81,0.0,4.0,31,0.00,,,0.00,Wunderground v.1.15,2013-08-31 19:10:00,
2013-08-31 14:15:00,102.2,63.9,29.78,East,85,1.0,4.0,29,0.00,,,0.00,Wunderground v.1.15,2013-08-31 19:15:00,
2013-08-31 14:20:00,101.8,63.6,29.78,East,85,1.0,1.0,29,0.00,,,0.00,Wunderground v.1.15,2013-08-31 19:20:00,
2013-08-31 14:25:00,101.0,64.8,29.78,ESE,111,0.0,1.0,31,0.00,,,0.00,Wunderground v.1.15,2013-08-31 19:25:00,
2013-08-31 14:30:00,101.0,64.8,29.78,ESE,119,1.0,8.0,31,0.00,,,0.00,Wunderground v.1.15,2013-08-31 19:30:00,
2013-08-31 14:40:00,103.0,64.6,29.77,SE,134,2.0,2.0,29,0.00,,,0.00,Wunderground v.1.15,2013-08-31 19:40:00,
2013-08-31 14:45:00,103.6,65.1,29.77,SE,134,1.0,2.0,29,0.00,,,0.00,Wunderground v.1.15,2013-08-31 19:45:00,
2013-08-31 14:50:00,103.8,65.3,29.77,South,169,1.0,1.0,29,0.00,,,0.00,Wunderground v.1.15,2013-08-31 19:50:00,
2013-08-31 14:55:00,103.7,65.2,29.77,South,183,1.0,7.0,29,0.00,,,0.00,Wunderground v.1.15,2013-08-31 19:55:00,
2013-08-31 15:00:00,104.7,66.1,29.77,SSE,153,2.0,8.0,29,0.00,,,0.00,Wunderground v.1.15,2013-08-31 20:00:00,
2013-08-31 15:10:00,104.0,63.4,29.76,SSW,197,2.0,2.0,27,0.00,,,0.00,Wunderground v.1.15,2013-08-31 20:10:00,
2013-08-31 15:20:00,104.1,64.5,29.76,SSW,207,1.0,1.0,28,0.00,,,0.00,Wunderground v.1.15,2013-08-31 20:20:00,
2013-08-31 15:25:00,104.4,63.8,29.76,East,92,2.0,9.0,27,0.00,,,0.00,Wunderground v.1.15,2013-08-31 20:25:00,
2013-08-31 15:30:00,104.6,65.0,29.76,ENE,74,4.0,4.0,28,0.00,,,0.00,Wunderground v.1.15,2013-08-31 20:30:00,
2013-08-31 15:35:00,104.7,65.0,29.75,SE,144,4.0,7.0,28,0.00,,,0.00,Wunderground v.1.15,2013-08-31 20:35:00,
2013-08-31 15:40:00,103.6,65.1,29.75,SSE,156,4.0,4.0,29,0.00,,,0.00,Wunderground v.1.15,2013-08-31 20:40:00,
2013-08-31 15:50:00,103.0,63.6,29.75,ESE,102,2.0,2.0,28,0.00,,,0.00,Wunderground v.1.15,2013-08-31 20:50:00,
2013-08-31 15:55:00,102.5,65.2,29.75,ESE,123,3.0,4.0,30,0.00,,,0.00,Wunderground v.1.15,2013-08-31 20:55:00,
2013-08-31 16:00:00,102.3,64.0,29.75,SE,128,3.0,3.0,29,0.00,,,0.00,Wunderground v.1.15,2013-08-31 21:00:00,
2013-08-31 16:10:00,102.2,63.9,29.75,SE,129,0.0,0.0,29,0.00,,,0.00,Wunderground v.1.15,2013-08-31 21:10:00,
2013-08-31 16:15:00,102.0,64.7,29.75,SE,144,0.0,0.0,30,0.00,,,0.00,Wunderground v.1.15,2013-08-31 21:15:00,
2013-08-31 16:20:00,101.5,64.3,29.74,East,80,2.0,2.0,30,0.00,,,0.00,Wunderground v.1.15,2013-08-31 21:20:00,
2013-08-31 16:25:00,102.3,63.0,29.74,East,94,2.0,2.0,28,0.00,,,0.00,Wunderground v.1.15,2013-08-31 21:25:00,
2013-08-31 16:35:00,102.6,64.3,29.74,SE,136,2.0,4.0,29,0.00,,,0.00,Wunderground v.1.15,2013-08-31 21:35:00,
2013-08-31 16:40:00,103.1,64.7,29.74,ESE,112,2.0,2.0,29,0.00,,,0.00,Wunderground v.1.15,2013-08-31 21:40:00,
2013-08-31 16:45:00,103.8,63.2,29.74,ESE,112,2.0,2.0,27,0.00,,,0.00,Wunderground v.1.15,2013-08-31 21:45:00,
2013-08-31 16:50:00,104.4,64.8,29.74,SSE,147,1.0,5.0,28,0.00,,,0.00,Wunderground v.1.15,2013-08-31 21:50:00,
2013-08-31 16:55:00,104.0,63.4,29.74,SSE,151,3.0,10.0,27,0.00,,,0.00,Wunderground v.1.15,2013-08-31 21:55:00,
2013-08-31 17:00:00,103.0,63.6,29.74,SE,125,6.0,6.0,28,0.00,,,0.00,Wunderground v.1.15,2013-08-31 22:00:00,
2013-08-31 17:10:00,103.2,65.8,29.73,SSE,149,4.0,7.0,30,0.00,,,0.00,Wunderground v.1.15,2013-08-31 22:10:00,
2013-08-31 17:15:00,103.3,64.9,29.74,SSE,160,5.0,7.0,29,0.00,,,0.00,Wunderground v.1.15,2013-08-31 22:15:00,
2013-08-31 17:20:00,103.6,66.1,29.73,East,101,5.0,9.0,30,0.00,,,0.00,Wunderground v.1.15,2013-08-31 22:20:00,
2013-08-31 17:25:00,103.6,65.1,29.73,ESE,119,6.0,9.0,29,0.00,,,0.00,Wunderground v.1.15,2013-08-31 22:25:00,
2013-08-31 17:30:00,103.5,64.0,29.74,SE,142,7.0,7.0,28,0.00,,,0.00,Wunderground v.1.15,2013-08-31 22:30:00,
2013-08-31 17:35:00,103.4,64.9,29.73,SE,131,7.0,11.0,29,0.00,,,0.00,Wunderground v.1.15,2013-08-31 22:35:00,
2013-08-31 17:45:00,103.8,65.3,29.73,ESE,123,5.0,8.0,29,0.00,,,0.00,Wunderground v.1.15,2013-08-31 22:45:00,
2013-08-31 17:50:00,103.9,64.4,29.73,SE,142,5.0,5.0,28,0.00,,,0.00,Wunderground v.1.15,2013-08-31 22:50:00,
2013-08-31 17:55:00,103.9,64.4,29.74,SE,138,5.0,10.0,28,0.00,,,0.00,Wunderground v.1.15,2013-08-31 22:55:00,
2013-08-31 18:00:00,103.4,63.9,29.74,ESE,117,6.0,7.0,28,0.00,,,0.00,Wunderground v.1.15,2013-08-31 23:00:00,
2013-08-31 18:10:00,102.7,64.4,29.73,ESE,119,4.0,9.0,29,0.00,,,0.00,Wunderground v.1.15,2013-08-31 23:10:00,
2013-08-31 18:15:00,102.5,64.2,29.73,ESE,123,6.0,9.0,29,0.00,,,0.00,Wunderground v.1.15,2013-08-31 23:15:00,
2013-08-31 18:20:00,102.2,63.9,29.73,ESE,123,6.0,6.0,29,0.00,,,0.00,Wunderground v.1.15,2013-08-31 23:20:00,
2013-08-31 18:30:00,101.9,64.6,29.73,ESE,109,5.0,6.0,30,0.00,,,0.00,Wunderground v.1.15,2013-08-31 23:30:00,
2013-08-31 18:35:00,101.8,64.6,29.73,ESE,113,5.0,9.0,30,0.00,,,0.00,Wunderground v.1.15,2013-08-31 23:35:00,
2013-08-31 18:40:00,101.6,64.4,29.73,ESE,107,6.0,6.0,30,0.00,,,0.00,Wunderground v.1.15,2013-08-31 23:40:00,
2013-08-31 18:45:00,101.4,64.2,29.73,ESE,107,5.0,6.0,30,0.00,,,0.00,Wunderground v.1.15,2013-08-31 23:45:00,
2013-08-31 18:55:00,101.0,63.9,29.73,ESE,105,5.0,9.0,30,0.00,,,0.00,Wunderground v.1.15,2013-08-31 23:55:00,
2013-08-31 19:00:00,100.5,64.4,29.73,ESE,108,5.0,5.0,31,0.00,,,0.00,Wunderground v.1.15,2013-09-01 00:00:00,
2013-08-31 19:10:00,99.5,63.5,29.73,SE,128,4.0,4.0,31,0.00,,,0.00,Wunderground v.1.15,2013-09-01 00:10:00,
2013-08-31 19:15:00,99.1,64.1,29.73,SE,128,3.0,4.0,32,0.00,,,0.00,Wunderground v.1.15,2013-09-01 00:15:00,
2013-08-31 19:20:00,98.7,64.6,29.73,SE,124,3.0,3.0,33,0.00,,,0.00,Wunderground v.1.15,2013-09-01 00:20:00,
2013-08-31 19:25:00,98.3,64.3,29.73,SE,125,4.0,4.0,33,0.00,,,0.00,Wunderground v.1.15,2013-09-01 00:25:00,
2013-08-31 19:30:00,97.8,64.7,29.73,SE,128,3.0,7.0,34,0.00,,,0.00,Wunderground v.1.15,2013-09-01 00:30:00,
2013-08-31 19:40:00,97.1,64.9,29.73,SE,132,3.0,6.0,35,0.00,,,0.00,Wunderground v.1.15,2013-09-01 00:40:00,
2013-08-31 19:45:00,96.7,64.5,29.74,SE,132,2.0,6.0,35,0.00,,,0.00,Wunderground v.1.15,2013-09-01 00:45:00,
2013-08-31 19:50:00,96.3,65.0,29.73,SE,132,1.0,1.0,36,0.00,,,0.00,Wunderground v.1.15,2013-09-01 00:50:00,
2013-08-31 19:55:00,95.9,64.7,29.73,SE,132,0.0,1.0,36,0.00,,,0.00,Wunderground v.1.15,2013-09-01 00:55:00,
2013-08-31 20:00:00,95.5,65.1,29.74,SE,132,0.0,0.0,37,0.00,,,0.00,Wunderground v.1.15,2013-09-01 01:00:00,
2013-08-31 20:10:00,94.7,65.1,29.74,SE,132,0.0,0.0,38,0.00,,,0.00,Wunderground v.1.15,2013-09-01 01:10:00,
2013-08-31 20:15:00,94.3,64.8,29.74,SE,132,0.0,0.0,38,0.00,,,0.00,Wunderground v.1.15,2013-09-01 01:15:00,
2013-08-31 20:25:00,93.6,64.9,29.74,SE,132,0.0,0.0,39,0.00,,,0.00,Wunderground v.1.15,2013-09-01 01:25:00,
2013-08-31 20:30:00,93.2,64.6,29.74,SE,132,0.0,0.0,39,0.00,,,0.00,Wunderground v.1.15,2013-09-01 01:30:00,
2013-08-31 20:35:00,92.8,64.9,29.74,SE,132,0.0,4.0,40,0.00,,,0.00,Wunderground v.1.15,2013-09-01 01:35:00,
2013-08-31 20:40:00,92.5,64.7,29.74,SE,132,0.0,0.0,40,0.00,,,0.00,Wunderground v.1.15,2013-09-01 01:40:00,
2013-08-31 20:45:00,92.2,65.1,29.75,SE,132,0.0,0.0,41,0.00,,,0.00,Wunderground v.1.15,2013-09-01 01:45:00,
2013-08-31 20:55:00,91.7,64.7,29.74,SE,132,0.0,0.0,41,0.00,,,0.00,Wunderground v.1.15,2013-09-01 01:55:00,
2013-08-31 21:00:00,91.4,64.4,29.74,SE,132,0.0,0.0,41,0.00,,,0.00,Wunderground v.1.15,2013-09-01 02:00:00,
2013-08-31 21:10:00,91.0,64.7,29.75,SE,132,0.0,0.0,42,0.00,,,0.00,Wunderground v.1.15,2013-09-01 02:10:00,
2013-08-31 21:15:00,90.7,64.5,29.76,SE,132,0.0,0.0,42,0.00,,,0.00,Wunderground v.1.15,2013-09-01 02:15:00,
2013-08-31 21:20:00,90.4,64.9,29.76,SE,132,0.0,0.0,43,0.00,,,0.00,Wunderground v.1.15,2013-09-01 02:20:00,
2013-08-31 21:25:00,90.1,64.6,29.76,SE,132,0.0,0.0,43,0.00,,,0.00,Wunderground v.1.15,2013-09-01 02:25:00,
2013-08-31 21:35:00,89.5,64.7,29.76,SE,132,0.0,0.0,44,0.00,,,0.00,Wunderground v.1.15,2013-09-01 02:35:00,
2013-08-31 21:40:00,89.2,65.1,29.76,SE,132,0.0,0.0,45,0.00,,,0.00,Wunderground v.1.15,2013-09-01 02:40:00,
2013-08-31 21:45:00,88.9,64.8,29.76,SE,132,0.0,0.0,45,0.00,,,0.00,Wunderground v.1.15,2013-09-01 02:45:00,
2013-08-31 21:50:00,88.6,64.5,29.76,SE,132,0.0,4.0,45,0.00,,,0.00,Wunderground v.1.15,2013-09-01 02:50:00,
2013-08-31 22:00:00,88.2,64.2,29.76,SE,132,0.0,0.0,45,0.00,,,0.00,Wunderground v.1.15,2013-09-01 03:00:00,
2013-08-31 22:10:00,87.8,63.8,29.76,SE,132,0.0,0.0,45,0.00,,,0.00,Wunderground v.1.15,2013-09-01 03:10:00,
2013-08-31 22:15:00,87.6,64.3,29.76,SE,132,0.0,0.0,46,0.00,,,0.00,Wunderground v.1.15,2013-09-01 03:15:00,
2013-08-31 22:20:00,87.4,64.1,29.76,SE,132,0.0,2.0,46,0.00,,,0.00,Wunderground v.1.15,2013-09-01 03:20:00,
2013-08-31 22:25:00,87.3,64.0,29.76,SE,132,0.0,2.0,46,0.00,,,0.00,Wunderground v.1.15,2013-09-01 03:25:00,
2013-08-31 22:30:00,87.1,63.8,29.76,SE,132,0.0,0.0,46,0.00,,,0.00,Wunderground v.1.15,2013-09-01 03:30:00,
2013-08-31 22:35:00,87.0,64.3,29.76,SE,132,0.0,0.0,47,0.00,,,0.00,Wunderground v.1.15,2013-09-01 03:35:00,
2013-08-31 22:45:00,86.8,63.5,29.76,SE,139,1.0,2.0,46,0.00,,,0.00,Wunderground v.1.15,2013-09-01 03:45:00,
2013-08-31 22:50:00,87.0,63.7,29.76,SE,140,2.0,4.0,46,0.00,,,0.00,Wunderground v.1.15,2013-09-01 03:50:00,
2013-08-31 22:55:00,87.2,63.9,29.76,SE,140,2.0,4.0,46,0.00,,,0.00,Wunderground v.1.15,2013-09-01 03:55:00,
2013-08-31 23:00:00,87.2,63.9,29.76,SE,140,1.0,1.0,46,0.00,,,0.00,Wunderground v.1.15,2013-09-01 04:00:00,
2013-08-31 23:05:00,87.2,63.9,29.76,SE,140,0.0,1.0,46,0.00,,,0.00,Wunderground v.1.15,2013-09-01 04:05:00,
2013-08-31 23:10:00,87.2,63.9,29.76,SE,140,0.0,0.0,46,0.00,,,0.00,Wunderground v.1.15,2013-09-01 04:10:00,
2013-08-31 23:15:00,87.2,63.9,29.76,SE,140,0.0,0.0,46,0.00,,,0.00,Wunderground v.1.15,2013-09-01 04:15:00,
2013-08-31 23:20:00,87.2,63.9,29.75,SE,140,0.0,0.0,46,0.00,,,0.00,Wunderground v.1.15,2013-09-01 04:20:00,
2013-08-31 23:25:00,87.1,63.8,29.76,SE,140,0.0,0.0,46,0.00,,,0.00,Wunderground v.1.15,2013-09-01 04:25:00,
2013-08-31 23:35:00,86.8,63.5,29.76,SE,140,0.0,0.0,46,0.00,,,0.00,Wunderground v.1.15,2013-09-01 04:35:00,
2013-08-31 23:40:00,86.7,64.1,29.76,SE,140,0.0,0.0,47,0.00,,,0.00,Wunderground v.1.15,2013-09-01 04:40:00,
2013-08-31 23:45:00,86.7,64.1,29.76,SE,145,1.0,1.0,47,0.00,,,0.00,Wunderground v.1.15,2013-09-01 04:45:00,
2013-08-31 23:50:00,86.6,64.0,29.75,SE,145,1.0,1.0,47,0.00,,,0.00,Wunderground v.1.15,2013-09-01 04:50:00,